Carson City, NV

6:01 AM PDT on March 25, 2017 (GMT -0700)
Carson

Weather History for KCXP - August, 2014

Change the Weather History Date:

Saturday, August 30, 2014

  Actual Average Record
Temperature  
Mean Temperature 75 °F -  
Max Temperature 84 °F 84 °F 91 °F (2013)
Min Temperature 66 °F 46 °F 46 °F (2011)
Cooling Degree Days 10    
Growing Degree Days 25 (Base 50)    
Moisture  
Dew Point 31 °F    
Average Humidity 21    
Maximum Humidity 32    
Minimum Humidity 12    
Precipitation  
Precipitation 0.00 in - - ()
Sea Level Pressure  
Sea Level Pressure 30.03 in    
Wind  
Wind Speed 8 mph (WSW)    
Max Wind Speed 20 mph    
Max Gust Speed 30 mph    
Visibility 10 miles    
Events      
Averages and records for this station are not official NWS values.
T = Trace of Precipitation, MM = Missing Value Source: NWS Daily Summary

Daily Weather History Graph

Daily Weather History Graph

Search for Another Location

Airport or City:

Trip Planner

Search our weather history database for the weather conditions in past years. The results will help you decide how hot, cold, wet, or windy it might be!

Date:

Astronomy

Aug. 30, 2014 Rise Set
Actual Time 6:25 AM PDT 7:32 PM PDT
Civil Twilight 5:58 AM PDT 7:59 PM PDT
Nautical Twilight 5:25 AM PDT 8:32 PM PDT
Astronomical Twilight 4:51 AM PDT 9:06 PM PDT
Moon 11:16 AM PDT (8/30) 10:12 PM PDT (8/30)
Length of Visible Light 14h 01m
Length of Day
13h 06m
Waxing Crescent, 24% of the Moon is Illuminated
Aug 30
Waxing Crescent
Sep 2
First Quarter
Sep 8
Full
Sep 15
Last Quarter
Sep 23
New

Hourly Weather History & Observations

Time (PDT) Temp. Dew Point Humidity Pressure Visibility Wind Dir Wind Speed Gust Speed Precip Events Conditions
12:15 AM 71.6 °F 32.0 °F 23% 30.07 in 10.0 mi SSW 3.5 mph - N/A   Clear
12:35 AM 69.8 °F 33.8 °F 27% 30.07 in 10.0 mi ENE 3.5 mph - N/A   Clear
1:15 AM 69.8 °F 33.8 °F 27% 30.05 in 10.0 mi Calm Calm - N/A   Clear
1:35 AM 68.0 °F 32.0 °F 26% 30.05 in 10.0 mi Calm Calm - N/A   Clear
1:55 AM 66.2 °F 33.8 °F 30% 30.05 in 10.0 mi East 3.5 mph - N/A   Clear
2:15 AM 66.2 °F 35.6 °F 32% 30.04 in 10.0 mi East 4.6 mph - N/A   Clear
2:35 AM 66.2 °F 35.6 °F 32% 30.04 in 10.0 mi Calm Calm - N/A   Clear
2:55 AM 75.2 °F 28.4 °F 18% 30.04 in 10.0 mi SW 10.4 mph 23.0 mph N/A   Clear
3:15 AM 75.2 °F 30.2 °F 19% 30.04 in 10.0 mi West 12.7 mph 20.7 mph N/A   Clear
3:35 AM 73.4 °F 32.0 °F 22% 30.04 in 10.0 mi WSW 16.1 mph 23.0 mph N/A   Clear
3:55 AM 73.4 °F 32.0 °F 22% 30.04 in 10.0 mi SW 10.4 mph 23.0 mph N/A   Clear
4:15 AM 73.4 °F 32.0 °F 22% 30.05 in 10.0 mi SW 10.4 mph 16.1 mph N/A   Clear
4:35 AM 73.4 °F 32.0 °F 22% 30.04 in 10.0 mi SW 12.7 mph 16.1 mph N/A   Clear
4:55 AM 73.4 °F 32.0 °F 22% 30.05 in 10.0 mi WSW 9.2 mph - N/A   Clear
5:15 AM 71.6 °F 32.0 °F 23% 30.05 in 10.0 mi WSW 10.4 mph - N/A   Clear
5:35 AM 71.6 °F 32.0 °F 23% 30.04 in 10.0 mi West 8.1 mph - N/A   Clear
5:55 AM 69.8 °F 32.0 °F 25% 30.04 in 10.0 mi West 8.1 mph - N/A   Clear
6:15 AM 68.0 °F 32.0 °F 26% 30.04 in 10.0 mi WNW 6.9 mph - N/A   Clear
6:35 AM 66.2 °F 33.8 °F 30% 30.05 in 10.0 mi NW 5.8 mph - N/A   Clear
6:55 AM 66.2 °F 33.8 °F 30% 30.06 in 10.0 mi WNW 6.9 mph - N/A   Clear
7:15 AM 68.0 °F 32.0 °F 26% 30.06 in 10.0 mi West 5.8 mph - N/A   Clear
7:35 AM 68.0 °F 35.6 °F 30% 30.06 in 10.0 mi WNW 3.5 mph - N/A   Clear
8:15 AM 71.6 °F 35.6 °F 27% 30.05 in 10.0 mi West 3.5 mph - N/A   Clear
8:35 AM 75.2 °F 32.0 °F 21% 30.05 in 10.0 mi WSW 8.1 mph - N/A   Clear
9:15 AM 77.0 °F 32.0 °F 19% 30.05 in 10.0 mi West 6.9 mph 17.3 mph N/A   Clear
9:35 AM 77.0 °F 32.0 °F 19% 30.05 in 10.0 mi SW 10.4 mph - N/A   Clear
9:55 AM 78.8 °F 32.0 °F 18% 30.06 in 10.0 mi NNW 10.4 mph 18.4 mph N/A   Clear
10:15 AM 80.6 °F 33.8 °F 18% 30.06 in 10.0 mi WNW 12.7 mph - N/A   Clear
10:35 AM 78.8 °F 35.6 °F 21% 30.06 in 10.0 mi West 11.5 mph 19.6 mph N/A   Clear
10:55 AM 80.6 °F 35.6 °F 20% 30.06 in 10.0 mi WSW 8.1 mph 17.3 mph N/A   Clear
11:55 AM 82.4 °F 32.0 °F 16% 30.05 in 10.0 mi WSW 15.0 mph 23.0 mph N/A   Clear
12:15 PM 80.6 °F 33.8 °F 18% 30.04 in 10.0 mi WSW 12.7 mph 27.6 mph N/A   Clear
12:35 PM 82.4 °F 33.8 °F 17% 30.04 in 10.0 mi WSW 17.3 mph 23.0 mph N/A   Clear
12:55 PM 82.4 °F 30.2 °F 15% 30.03 in 10.0 mi West 15.0 mph 26.5 mph N/A   Clear
1:15 PM 82.4 °F 32.0 °F 16% 30.02 in 10.0 mi SW 11.5 mph 17.3 mph N/A   Clear
1:35 PM 84.2 °F 28.4 °F 13% 30.01 in 10.0 mi West 8.1 mph 23.0 mph N/A   Clear
1:55 PM 84.2 °F 30.2 °F 14% 30.01 in 10.0 mi West 19.6 mph 29.9 mph N/A   Clear
2:15 PM 84.2 °F 30.2 °F 14% 30.01 in 10.0 mi West 17.3 mph 23.0 mph N/A   Clear
2:35 PM 84.2 °F 28.4 °F 13% 30.00 in 10.0 mi WSW 8.1 mph 24.2 mph N/A   Clear
2:55 PM 84.2 °F 28.4 °F 13% 30.00 in 10.0 mi WSW 18.4 mph 27.6 mph N/A   Clear
3:15 PM 84.2 °F 26.6 °F 12% 30.00 in 10.0 mi West 12.7 mph 26.5 mph N/A   Clear
3:35 PM 84.2 °F 28.4 °F 13% 30.00 in 10.0 mi WSW 12.7 mph 23.0 mph N/A   Clear
3:55 PM 84.2 °F 28.4 °F 13% 30.00 in 10.0 mi SW 13.8 mph 25.3 mph N/A   Clear
4:15 PM 84.2 °F 28.4 °F 13% 30.00 in 10.0 mi West 13.8 mph 24.2 mph N/A   Clear
4:35 PM 82.4 °F 28.4 °F 14% 30.01 in 10.0 mi WSW 8.1 mph 27.6 mph N/A   Clear
4:55 PM 82.4 °F 28.4 °F 14% 29.99 in 10.0 mi WSW 16.1 mph 25.3 mph N/A   Clear
5:15 PM 82.4 °F 30.2 °F 15% 30.00 in 10.0 mi West 18.4 mph 26.5 mph N/A   Clear
5:35 PM 80.6 °F 32.0 °F 17% 30.00 in 10.0 mi WSW 15.0 mph 25.3 mph N/A   Clear
5:55 PM 78.8 °F 30.2 °F 17% 30.00 in 10.0 mi West 13.8 mph 24.2 mph N/A   Clear
6:15 PM 80.6 °F 28.4 °F 15% 30.01 in 10.0 mi WSW 12.7 mph 24.2 mph N/A   Clear
6:35 PM 77.0 °F 28.4 °F 17% 30.00 in 10.0 mi West 16.1 mph 23.0 mph N/A   Clear
6:55 PM 77.0 °F 30.2 °F 18% 30.00 in 10.0 mi WSW 16.1 mph 26.5 mph N/A   Clear
7:15 PM 75.2 °F 32.0 °F 21% 30.00 in 10.0 mi West 11.5 mph 20.7 mph N/A   Clear
7:35 PM 73.4 °F 32.0 °F 22% 30.01 in 10.0 mi WSW 10.4 mph 18.4 mph N/A   Clear
8:15 PM 73.4 °F 28.4 °F 19% 30.00 in 10.0 mi WSW 15.0 mph 24.2 mph N/A   Clear
8:35 PM 73.4 °F 28.4 °F 19% 30.00 in 10.0 mi WSW 17.3 mph 28.8 mph N/A   Clear
8:55 PM 71.6 °F 28.4 °F 20% 30.02 in 10.0 mi West 16.1 mph 20.7 mph N/A   Clear
9:15 PM 71.6 °F 26.6 °F 19% 30.02 in 10.0 mi West 8.1 mph 20.7 mph N/A   Clear
9:35 PM 71.6 °F 28.4 °F 20% 30.02 in 10.0 mi WSW 10.4 mph 16.1 mph N/A   Clear
9:55 PM 71.6 °F 28.4 °F 20% 30.02 in 10.0 mi SW 6.9 mph 21.9 mph N/A   Clear
10:15 PM 71.6 °F 28.4 °F 20% 30.03 in 10.0 mi SW 5.8 mph 17.3 mph N/A   Clear
10:35 PM 69.8 °F 32.0 °F 25% 30.03 in 10.0 mi Calm Calm - N/A   Clear
10:55 PM 68.0 °F 28.4 °F 23% 30.03 in 10.0 mi Calm Calm - N/A   Clear
11:15 PM 68.0 °F 28.4 °F 23% 30.03 in 10.0 mi NE 3.5 mph - N/A   Clear
11:35 PM 66.2 °F 32.0 °F 28% 30.03 in 10.0 mi NE 4.6 mph - N/A   Clear
11:55 PM 66.2 °F 32.0 °F 28% 30.03 in 10.0 mi North 9.2 mph - N/A   Clear